Location: Calberlah
(52.4230°N, 10.6240°E)
Time: 00:17:09
(UTC+00:00)

CENTAUR R/B - Pass Details

Date: 19 May 2025
Orbit: 644 x 1537 km, 63.4° (Epoch: 23 June)

Event Time Altitude Azimuth Distance (km) Brightness Sun altitude
Rises 21:22:05 0° 306° (NW) 3,913 6.9 -13.6°
Reaches altitude 10° 21:24:40 10° 312° (NW) 3,077 6.3 -13.8°
Maximum altitude 21:32:04 52° 28° (NNE) 1,626 3.9 -14.3°
Drops below altitude 10° 21:40:49 10° 103° (ESE) 3,625 5.1 -14.8°
Sets 21:44:06 0° 108° (ESE) 4,658 5.7 -15.0°
